Preview of NWS' New Version of Forecast
This preview is not operational and should not be used for support decisions.

Regional Weather Roundup (RWR)

Issued by Lubbock, TX (LUB)

                            
000
ASUS44 KLUB 170510
RWRLUB
WEST TEXAS WEATHER ROUNDUP
NATIONAL WEATHER SERVICE LUBBOCK TX
1100 PM CST SUN DEC 16 2018

NOTE: "FAIR" INDICATES FEW OR NO CLOUDS BELOW 12,000 FEET WITH NO
SIGNIFICANT WEATHER AND/OR OBSTRUCTIONS TO VISIBILITY.

TXZ004-006>008-010-012-014-016-OKZ002-170600-
TEXAS PANHANDLE/OKLAHOMA PANHANDLE
  
CITY           SKY/WX    TMP DP  RH WIND       PRES   REMARKS
AMARILLO       CLOUDY    37  17  44 NE7       30.31F WCI  32          
BORGER         CLOUDY    44  19  36 CALM      30.33S                  
CANADIAN       CLOUDY    28  20  72 SW3       30.33S                  
DALHART        CLEAR     32  16  51 CALM      30.34S                  
DUMAS          CLOUDY    36  18  48 CALM      30.33                   
GUYMON         CLOUDY    35  20  54 CALM      30.33R                  
HEREFORD       CLOUDY    29  17  62 NW3       30.34                   
PAMPA          CLOUDY    35  21  57 SE5       30.33  WCI  30          
PERRYTON       CLOUDY    34  22  62 CALM      30.32                   
$$

TXZ026-029-035-045-048-170600-
SOUTHERN PANHANDLE/SOUTH PLAINS/ROLLING PLAINS
  
CITY           SKY/WX    TMP DP  RH WIND       PRES   REMARKS
CHILDRESS      CLOUDY    44  24  45 N6        30.32R                  
SEMINOLE       CLOUDY    41  32  69 NE3       30.33                   
LUBBOCK        CLOUDY    37  30  75 CALM      30.31R                  
PLAINVIEW      CLOUDY    34  23  62 CALM      30.30S                  
SNYDER         CLOUDY    45  34  66 N5        30.30                   
$$

TXZ052-054-060>062-072-078-127-140-154-169-170600-
PERMIAN BASIN/CONCHO VALLEY/BIG COUNTRY/EDWARDS PLATEAU  
  
CITY           SKY/WX    TMP DP  RH WIND       PRES   REMARKS
ABILENE        PTCLDY    44  38  79 CALM      30.29F                  
BIG SPRING     CLOUDY    42  36  76 NE6       30.30                   
BRADY          MOCLDY    46  36  66 N6        30.27                   
BROWNWOOD      PTCLDY    46  37  71 CALM      30.28F                  
JUNCTION       PTCLDY    44  37  76 NW6       30.29S                  
MIDLAND        PTCLDY    46  35  65 W5        30.28R                  
ODESSA         CLOUDY    45  32  60 W6        30.29R                  
SAN ANGELO     PTCLDY    47  38  71 NW3       30.28S                  
SONORA         PTCLDY    43  34  70 CALM      30.33                   
SWEETWATER     PTCLDY    48  32  53 CALM      30.31                   
WINK           CLOUDY    43  35  73 NW5       30.29R                  
$$

TXZ055-058-074-075-080-082-170600-
FAR WEST/SOUTHWEST MOUNTAINS/TRANS PECOS
  
CITY           SKY/WX    TMP DP  RH WIND       PRES   REMARKS
ALPINE         PTCLDY    45  18  34 SW8       30.37S                  
EL PASO        CLOUDY    51  25  36 NE6       30.30F                  
FORT STOCKTON  CLOUDY    44  34  67 SW6       30.30S                  
PECOS          PTCLDY    42  35  75 CALM      30.30S                  
PRESIDIO       FAIR      45  37  73 N3        30.33F                  
$$

TXZ014-016-019-021>030-083-170600
TEXAS TECH WEST TEXAS MESONET/TEXAS PANHANDLE/NORTHERN SOUTH PLAINS
  
CITY           SKY/WX    TMP DP  RH WIND       PRES   REMARKS
ABERNATHY 5ENE   N/A     34  25  69 NE2       30.32S                  
AMARILLO 9NNE    N/A     30  18  60 CALM      30.33S                  
AMARILLO 7SSE    N/A     35  16  46 E1        30.34S                  
AMHERST 1NE      N/A     32  25  73 NW3       30.33S                  
BOOTLEG 11WNW    N/A     38  15  38 E7        30.36S WCI  33          
CANADIAN 6E      N/A     36  23  59 W2        30.31R                  
CAPROCK CYN SP   N/A     35  25  67 NW3       30.33S                  
CHILDRESS 2NNE   N/A     47  22  37 N2        30.32S                  
CLARENDON 2WSW   N/A     35  18  50 CALM      30.33R                  
CLAUDE 12SW      N/A     43  16  33 NE8       30.33R                  
DIMMITT 2NE      N/A     37  17  43 NE6       30.32F WCI  32          
FLOYDADA 2NNE    N/A     31  24  74 N1        30.31R                  
FRIONA 2NE       N/A     26  18  71 NW5       30.34S WCI  20          
GOODLETT 3W      N/A     42  24  47 N6        30.31S                  
HART 3N          N/A     33  18  55 NE5       30.32S WCI  28          
HEREFORD 2NW     N/A     28  16  63 W1        30.33S                  
MCLEAN 1E        N/A     45  22  40 NE7       30.31S                  
MEMPHIS 1NE      N/A     36  21  54 NW3       30.32S                  
MULESHOE 2SSW    N/A     26  20  78 NW1       30.34S                  
OLTON 6S         N/A     35  22  61 NW3       30.33R                  
PALO DURO SP     N/A     45  16  31 NE1       30.34S                  
PAMPA 2E         N/A     35  20  54 E3        30.32F                  
PLAINVIEW 1S     N/A     35  26  67 CALM      30.31S                  
SILVERTON 7ESE   N/A     35  20  54 E3        30.32F                  
TULIA 2ENE       N/A     30  18  60 N5        30.32F WCI  25          
TURKEY 2WSW      N/A     47  22  36 N3        30.31S                  
UMBARGER 3NNE    N/A     33  17  51 CALM      30.33S                  
$$

TXZ033>036-039>041-045>048-170600
TEXAS TECH WEST TEXAS MESONET/SOUTH PLAINS  
  
CITY           SKY/WX    TMP DP  RH WIND       PRES   REMARKS
AIKEN 3WSW       N/A     31  23  72 NE5       30.33R WCI  26          
ANDREWS 2NE      N/A     43  30  59 N6        30.29S                  
ANTON 6SSW       N/A     32  28  86 NW5       30.32S WCI  27          
BROWNFIELD 2S    N/A     39  30  70 N6        30.30F WCI  34          
DENVR CTY 7WNW   N/A     36  28  73 N6        30.29S WCI  31          
GAIL 2ESE        N/A     43  31  62 NW3       30.29S                  
LAMESA 2SE       N/A     42  35  75 N5        30.30F                  
LUBBOCK 3WNW     N/A     34  31  89 NW1       30.32S                  
MORTON 1ENE      N/A     32  25  74 NE3       30.31F                  
ODONNELL 1N      N/A     38  32  78 N6        30.30S WCI  34          
PLAINS 3N        N/A     35  27  72 N7        30.30S WCI  29          
RALLS 1SE        N/A     35  29  79 NW1       30.32S                  
REESE CENTER     N/A     32  28  86 W3        30.32R                  
SEAGRAVES 1SW    N/A     39  31  72 N5        30.29S                  
SEMINOLE 2NNE    N/A     39  32  74 NE6       30.28F                  
SLATON 2NE       N/A     40  29  65 N1        30.31F                  
SNYDER 3E        N/A     47  34  60 N3        30.29S                  
SUNDOWN 8SW      N/A     32  25  77 NE8       30.30F WCI  25          
TAHOKA 3NNE      N/A     33  29  86 NW5       30.31S WCI  28          
WOLFFORTH 6SSW   N/A     33  29  85 NW3       30.31S                  
$$

TXZ031-032-036>038-042>044-170600-
TEXAS TECH WEST TEXAS MESONET/ROLLING PLAINS 
  
CITY           SKY/WX    TMP DP  RH WIND       PRES   REMARKS
ASPERMONT 3NE    N/A     38  33  83 W3        30.31R                  
FLUVANNA 3WNW    N/A     45  31  57 N8        30.29F                  
GRAHAM 5SSW      N/A     43  31  62 N1        30.30S                  
GUTHRIE 10WSW    N/A     40  27  59 W1        30.31R                  
HASKELL 1NW      N/A     38  34  83 NW6       30.29S WCI  34          
JAYTON 1SSE      N/A     40  29  66 NW3       30.30F                  
KNOX CITY 3NW    N/A     39  36  89 W3        30.31S                  
LK A HENRY 1NW   N/A     43  31  64 W2        30.30S                  
NORTHFIELD 1S    N/A     38  26  62 W6        30.32S WCI  33          
ODELL 4ENE       N/A     36  26  66 W3        30.32S                  
PADUCAH 10SW     N/A     47  24  41 N2        30.31S                  
POST 1NE         N/A     43  28  55 NW5       30.31S                  
RRING SPRGS 3N   N/A     48  24  38 E3        30.31R                  
SEYMOUR 3NW      N/A     39  35  85 N1        30.30S                  
SPUR 1W          N/A     35  29  79 N6        30.30S WCI  30          
WEINERT 2NNE     N/A     40  35  83 NW3       30.30S                  
WHITE RVR 6NE    N/A     44  24  44 N5        30.30S                  
$$

TXZ052-054-060>062-072-078-127-140-154-169-170600-
TEXAS TECH WEST TEXAS MESONET/PERMIAN BASIN/
CONCHO VALLEY/BIG COUNTRY/EDWARDS PLATEAU
  
CITY           SKY/WX    TMP DP  RH WIND       PRES   REMARKS
COYANOSA 2N      N/A     43  35  74 S5        30.30S                  
JUNCTION 1SSW    N/A     42  37  80 S1        30.30R                  
MERTZON 3NNE     N/A     46  34  64 N1        30.29F                  
SAN ANGELO 7NW   N/A     46  37  70 S3        30.29S                  
STRLNG CT 4WSW   N/A     42  37  82 S2        30.29S                  
ST LAWRNCE 5SW   N/A     44  37  76 S9        30.30R                  
SWEETWATR 11SW   N/A     46  32  58 NE5       30.30S                  
WALL 1E          N/A     47  40  76 E2        30.30R                  
$$

TXZ055-058-074-075-080-082-170600-
TEXAS TECH WEST TEXAS MESONET/FAR WEST/SOUTHWEST MOUNTAINS/TRANS PECOS
  
CITY           SKY/WX    TMP DP  RH WIND       PRES   REMARKS
PRSMN GAP BBNP   N/A     46  35  63 W2        30.30F                  
GUADLPE MTN NP   N/A     48  13  24 SW9       30.34S                  
$$